Regional Weather Roundup
Issued by NWS

Home | Current Version | Previous Version | Graphics & Text | Print | Product List | Glossary On
Versions: 1 2 3 4 5 6 7 8 9 10 11 12 13 14 15 16 17 18 19 20 21 22 23 24 25 26 27 28 29 30 31 32 33 34 35 36 37 38 39 40 41 42 43 44 45 46 47 48 49 50
000
ASUS45 KCYS 172110
RWRWY

WYOMING REGIONAL WEATHER ROUNDUP
NATIONAL WEATHER SERVICE CHEYENNE WY
300 PM MDT WED SEP 17 2014

NOTE:  "FAIR" INDICATES FEW OR NO CLOUDS BELOW 12,000 FEET
WITH NO SIGNIFICANT WEATHER AND/OR OBSTRUCTIONS TO VISIBILITY.

WYZ001-172200-
YELLOWSTONE NATIONAL PARK

CITY           SKY/WX    TMP DP  RH WIND       PRES   REMARKS
LK YELLOWSTONE   N/A     66  40  38 CALM      30.22S
W YELLOWSTONE  NOT AVBL

$$
WYZ002>013-054>058-071-098>099-172200-
NORTHERN WYOMING

CITY           SKY/WX    TMP DP  RH WIND       PRES   REMARKS
JACKSON        MOSUNNY   77  41  27 SW5       30.10F
CODY           SUNNY     79  43  27 SE10      29.98S
GREYBULL       SUNNY     83  45  26 S7        29.92F
WORLAND        SUNNY     82  47  29 NE5       29.93F
SHERIDAN       SUNNY     85  46  25 CALM      29.93F
BUFFALO        LGT RAIN  82  42  24 N3        29.99F
GILLETTE       MOSUNNY   84  41  21 CALM      29.95F
HULETT         FAIR      81  41  24 MISG      29.97
NEWCASTLE      FAIR      82  32  16 SW6       29.97

$$
WYZ014>020-022>026-101>103-172200-
CENTRAL WYOMING

CITY           SKY/WX    TMP DP  RH WIND       PRES   REMARKS
BIG PINEY      MOSUNNY   72  42  34 S7        30.19F
PINEDALE       PTCLDY    73  34  23 W6        30.19S
DUBOIS         CLOUDY    73  32  21 N23G32    30.13S
LANDER         PTSUNNY   81  34  18 W8        30.02F
RIVERTON       MOSUNNY   81  36  19 CALM      30.03F
CASPER         PTSUNNY   83  35  18 SW20G30   30.04F
DOUGLAS        MOSUNNY   85  40  20 NW18G25   30.00F

$$
WYZ021-027>030-104>119-172200-
SOUTHERN WYOMING

CITY           SKY/WX    TMP DP  RH WIND       PRES   REMARKS
EVANSTON       MOSUNNY   76  40  27 E9        30.17F
KEMMERER       CLEAR    N/A N/A N/A SE8       30.20F
FORT BRIDGER   FAIR      77  40  26 E6        30.21F
ROCK SPRINGS   SUNNY     79  34  19 S5        30.15F
DIXON          FAIR      81  38  21 W12       30.15F
RAWLINS        MOSUNNY   76  37  24 N16       30.18F
SARATOGA       CLOUDY    73  41  31 NE8       30.21R
LARAMIE        PTSUNNY   69  37  30 NW22G28   30.21R THUNDER
CHEYENNE       MOSUNNY   77  41  27 N24G31    30.09S
TORRINGTON     PTSUNNY   78  44  29 NW7       29.96F
PINE BLUFFS    FAIR      86  34  15 CALM      30.02F

$$



USA.gov is the U.S. government's official web portal to all federal, state and local government web resources and services.